Preview of NWS' New Version of Forecast
This preview is not operational and should not be used for support decisions.

Regional Weather Roundup (RWR)

Issued by National Weather Service (NWS)

                            
000
ASUS45 KCYS 232110
RWRWY 

WYOMING REGIONAL WEATHER ROUNDUP
NATIONAL WEATHER SERVICE CHEYENNE WY
300 PM MDT SUN JUN 23 2019

NOTE:  "FAIR" INDICATES FEW OR NO CLOUDS BELOW 12,000 FEET
WITH NO SIGNIFICANT WEATHER AND/OR OBSTRUCTIONS TO VISIBILITY.

WYZ001-232200-
...YELLOWSTONE NATIONAL PARK...
  
CITY           SKY/WX    TMP DP  RH WIND       PRES   REMARKS
LK YELLOWSTONE   N/A     49  33  54 VRB5G20   30.14S                  
W YELLOWSTONE  NOT AVBL                                               

$$
WYZ002>013-054>058-071-098>099-232200-
...NORTHERN WYOMING...
  
CITY           SKY/WX    TMP DP  RH WIND       PRES   REMARKS
JACKSON        CLOUDY    57  38  48 S10       30.09F                  
CODY           CLOUDY    66  34  30 VRB5      29.96F                  
GREYBULL       CLOUDY    72  35  25 VRB3      29.90F                  
WORLAND        MOSUNNY   72  30  21 CALM      29.92F                  
SHERIDAN       MOSUNNY   72  41  32 CALM      29.90F                  
BUFFALO        MOSUNNY   68  41  37 SE8       29.95F                  
GILLETTE       MOSUNNY   65  41  41 VRB3      29.93F                  
HULETT         CLOUDY    64  46  52 S8        29.94F THUNDER          
NEWCASTLE      PTSUNNY   55  45  67 SW7       29.97S THUNDER          

$$
WYZ014>020-022>026-101>103-232200-
...CENTRAL WYOMING...
  
CITY           SKY/WX    TMP DP  RH WIND       PRES   REMARKS
BIG PINEY      CLOUDY    59  31  34 VRB5      30.13S                  
PINEDALE       CLOUDY    59  30  33 W13       30.13S                  
DUBOIS         CLOUDY    54  28  37 NW13G21   30.09F                  
LANDER         CLOUDY    65  34  31 N9        30.00S                  
RIVERTON       CLOUDY    68  32  26 SW15G22   30.00F                  
CASPER         PTSUNNY   66  38  35 NW13      29.99F                  
DOUGLAS        SUNNY     62  41  46 CALM      30.00F                  

$$
WYZ021-027>030-104>119-232200-
...SOUTHERN WYOMING...
  
CITY           SKY/WX    TMP DP  RH WIND       PRES   REMARKS
EVANSTON       MOSUNNY   60  32  34 W17G25    30.18S                  
KEMMERER       SUNNY     63  25  23 W16G28    30.16F                  
FORT BRIDGER   CLOUDY    63  30  29 NW17G29   30.19                   
ROCK SPRINGS   CLOUDY    61  28  28 W20       30.12S                  
DIXON          PTSUNNY   53  38  56 E16       30.15F                  
RAWLINS        MOSUNNY   62  30  29 NW17G25   30.09F                  
SARATOGA       CLOUDY    55  36  47 W13G18    30.12F                  
LARAMIE        MOSUNNY   54  38  54 N13G20    30.09F                  
CHEYENNE         N/A    N/A N/A N/A MISG        N/A                   
TORRINGTON     MOSUNNY   61  48  62 S9        29.98F                  
PINE BLUFFS    PTSUNNY   57  41  54 NW9G18    30.04S                  

$$